[[{"header":{"parameterUnit":"m.s-1","parameterCategory":2,"la1":30.2991,"la2":30.254,"lo1":-89.0895,"lo2":-89.0444,"dy":0.0017,"dx":0.0017,"nx":28,"ny":28,"refTime":"2025-12-20T03:00:00:Z","depth":"0","parameterNumber":2,"parameterNumberName":"U-component_of_CURRENTS"},"data":[0,0,0,0,0,0,0,0,0,0,0,0,0,0,0,0,0,0,0,0,0,0,0,0,0,0,0,0,0,0,0,0,0,0,0,0,0,0,0,0,0,0,0,0,0,0,0,0,0,0,0,0,0,0,0,0,0,0,0.3129,0.3129,0,0.3086,0.3086,0.3085,0.3031,0.3031,0.303,0.3029,0.298,0.2979,0.2978,0,0,0,0,0,0,0,0,0,0,0,0,0,0.3202,0.32,0.3129,0.3129,0.3128,0.3087,0.3086,0.3085,0.3031,0.3031,0.303,0.3029,0.298,0.2979,0.2978,0,0,0,0,0,0,0,0,0,0,0,0,0,0.3164,0.32,0.3129,0.3098,0.3095,0.3087,0.3086,0.3085,0.3031,0.3031,0.303,0.3029,0.298,0.2979,0.2978,0.299,0,0,0.2975,0.2974,0,0,0,0,0,0,0,0,0.3166,0.316,0.3103,0.31,0.3097,0.3065,0.3093,0.3054,0.3032,0.3053,0.3029,0.3028,0.301,0.3006,0.2997,0.2988,0.2986,0.2975,0.2974,0.2973,0.2973,0,0,0,0,0,0,0,0.3168,0.3162,0.3109,0.3103,0.3099,0.31,0.3093,0.3086,0.3035,0.3051,0.3048,0.3047,0.3008,0.2998,0.2995,0.2985,0.2975,0.2974,0.2973,0.2972,0.2993,0.2994,0,0,0,0,0,0,0.3177,0.3165,0.3111,0.3108,0.3133,0.31,0.3092,0.3074,0.3035,0.3029,0.3048,0.3045,0.3001,0.2997,0.2994,0.3017,0.2973,0.2972,0.2972,0.2992,0.2993,0.2994,0,0,0,0,0,0,0.3179,0.3172,0.3113,0.3139,0.3131,0.3099,0.3081,0.3074,0.3065,0.3034,0.3027,0.3046,0.3,0.2995,0.2992,0.3014,0.2972,0.2971,0.299,0.2992,0.2994,0.3057,0,0,0,0,0,0,0.3181,0.3173,0.3169,0.3139,0.313,0.311,0.3082,0.3074,0.3067,0.3062,0.303,0.3024,0.2999,0.2994,0.2991,0.3012,0.297,0.2989,0.2991,0.2993,0.3053,0.3061,0.3067,0,0,0,0,0,0.3183,0.318,0.3168,0.3163,0.3123,0.3111,0.3107,0.308,0.3068,0.3067,0.3048,0.3025,0.3006,0.2994,0.299,0.3011,0.2988,0.299,0.2993,0.305,0.3059,0.3067,0,0,0,0,0,0,0.3214,0.3174,0.316,0.3146,0.3133,0.3103,0.3106,0.3088,0.3072,0.3072,0.3037,0.3031,0.304,0.3019,0.3006,0.3025,0.2995,0.2997,0.304,0.3048,0.3054,0.3069,0.2969,0,0,0,0,0,0.3219,0.3203,0.3174,0.3166,0.3163,0.3138,0.3132,0.3115,0.3097,0.3089,0.3063,0.3048,0.3049,0.3042,0.3034,0.3042,0.304,0.3055,0.3062,0.3068,0.3078,0.3104,0.3114,0.3003,0.3003,0.3003,0,0,0.3233,0.3209,0.3201,0.3172,0.3162,0.316,0.3131,0.3129,0.3128,0.3089,0.3081,0.3073,0.3058,0.3067,0.307,0.305,0.3098,0.3071,0.3076,0.3084,0.3108,0.3118,0.3128,0.3005,0.3005,0.3004,0,0,0.3249,0.3229,0.322,0.3214,0.3201,0.3187,0.319,0.3163,0.3152,0.3149,0.313,0.3136,0.3117,0.3116,0.3115,0.3157,0.3137,0.3154,0.3194,0.3219,0.3229,0.3237,0.3247,0.3256,0.3152,0.3152,0.3152,0,0.3269,0.3242,0.3221,0.3218,0.3218,0.3202,0.3204,0.3199,0.3173,0.318,0.3155,0.3161,0.3144,0.3175,0.3187,0.3174,0.3179,0.3163,0.3229,0.3237,0.3244,0.3253,0.3261,0.3155,0.3155,0.3154,0.3154,0,0.3272,0.3261,0.3264,0.3247,0.3249,0.3252,0.3245,0.3246,0.3235,0.3233,0.3255,0.3236,0.3241,0.324,0.3224,0.3273,0.3257,0.3239,0.3209,0.3259,0.3265,0.3273,0.316,0.3159,0.3158,0.3157,0,0,0.3281,0.3266,0.3266,0.3258,0.3263,0.3257,0.3282,0.3292,0.3311,0.3303,0.3327,0.3336,0.3336,0.3335,0.332,0.3338,0.3389,0.3312,0.3312,0.3324,0.344,0.3382,0.3385,0.3384,0.3386,0.3388,0.3422,0,0.3286,0.3273,0.3274,0.3278,0.3269,0.3283,0.3307,0.3325,0.3337,0.3359,0.3373,0.339,0.337,0.3373,0.3396,0.3392,0.3414,0.3381,0.3388,0.3388,0.3332,0.3394,0.3257,0.3272,0.3429,0.3431,0.3432,0,0.3275,0.3266,0.3261,0.3272,0.3276,0.3285,0.3319,0.3341,0.3396,0.3418,0.3457,0.3458,0.3497,0.346,0.35,0.3481,0.3473,0.3465,0.3465,0.3397,0.3346,0.3247,0.328,0.3183,0.3444,0.3443,0.3442,0,0.3246,0.3253,0.3242,0.3245,0.3265,0.3276,0.3299,0.3355,0.3384,0.3455,0.3476,0.3534,0.3541,0.3562,0.3549,0.353,0.3582,0.355,0.3493,0.3488,0.3365,0.3346,0.3305,0.3585,0.3585,0.3585,0.3585,0,0.3225,0.3214,0.3223,0.3212,0.3221,0.3255,0.3288,0.333,0.3404,0.3439,0.3497,0.3521,0.3567,0.3588,0.3583,0.3569,0.3614,0.3518,0.3503,0.3381,0.3365,0.3268,0.3219,0.3586,0.3586,0.3585,0.3585,0,0.3174,0.318,0.3166,0.3188,0.3194,0.3201,0.3263,0.3291,0.3374,0.3417,0.3438,0.3524,0.3558,0.3587,0.3621,0.3593,0.3485,0.3574,0.3425,0.3391,0.3229,0.3188,0.3044,0.2954,0.3518,0.3517,0.3516,0,0.3136,0.3122,0.3133,0.3123,0.3124,0.3148,0.3166,0.3261,0.3294,0.3399,0.3405,0.3473,0.3491,0.354,0.3526,0.3525,0.3427,0.339,0.3329,0.3217,0.3162,0.3054,0.2981,0.319,0.3186,0.3184,0.3181,0,0.3073,0.308,0.3073,0.3051,0.3049,0.3057,0.3087,0.311,0.3215,0.3252,0.3296,0.3326,0.339,0.3344,0.3368,0.3348,0.3214,0.333,0.3253,0.2941,0.2781,0.2686,0.3168,0.3156,0.3158,0.316,0.3162,0.3163,0.3029,0.3005,0.2992,0.2959,0.2958,0.2928,0.2901,0.2947,0.2971,0.2986,0.312,0.3107,0.3167,0.3181,0.3155,0.3019,0.302,0.2913,0.2887,0.28,0.2663,0.3089,0.3034,0.3036,0.3037,0.3039,0.304,0,0.2938,0.2912,0.2892,0.2834,0.278,0.2816,0.2809,0.2764,0.2726,0.2796,0.2819,0.2818,0.2779,0.2807,0.2734,0.2609,0.2496,0.2516,0.2333,0.2295,0.2709,0.2645,0.2455,0.2455,0.2455,0.2455,0.2455,0.2455,0.2888,0.2817,0.279,0.2654,0.2615,0.2502,0.2469,0.2432,0.2447,0.2391,0.237,0.242,0.252,0.2484,0.2348,0.2282,0.2102,0.1978,0.1991,0.2287,0.2321,0.2355,0.2285,0.2022,0.2021,0.1484,0.148,0.1477]},{"header":{"parameterUnit":"m.s-1","parameterCategory":2,"la1":30.2991,"la2":30.254,"lo1":-89.0895,"lo2":-89.0444,"dy":0.0017,"dx":0.0017,"nx":28,"ny":28,"refTime":"2025-12-20T03:00:00:Z","depth":"0","parameterNumber":3,"parameterNumberName":"V-component_of_CURRENTS"},"data":[0,0,0,0,0,0,0,0,0,0,0,0,0,0,0,0,0,0,0,0,0,0,0,0,0,0,0,0,0,0,0,0,0,0,0,0,0,0,0,0,0,0,0,0,0,0,0,0,0,0,0,0,0,0,0,0,0,0,0.0134,0.0134,0,0.0137,0.0136,0.0136,0.0121,0.012,0.012,0.012,0.0084,0.0083,0.0083,0,0,0,0,0,0,0,0,0,0,0,0,0,0.0088,0.0089,0.0134,0.0134,0.0135,0.0137,0.0136,0.0136,0.0121,0.012,0.012,0.012,0.0084,0.0084,0.0083,0,0,0,0,0,0,0,0,0,0,0,0,0,0.0099,0.0089,0.0134,0.0129,0.0129,0.0137,0.0136,0.0136,0.0121,0.012,0.012,0.012,0.0085,0.0084,0.0082,0.0082,0,0,0.0079,0.0079,0,0,0,0,0,0,0,0,0.0098,0.01,0.0129,0.0129,0.0129,0.013,0.0107,0.0117,0.0121,0.0121,0.012,0.012,0.0098,0.0096,0.0094,0.0081,0.0079,0.0079,0.0078,0.0078,0.0078,0,0,0,0,0,0,0,0.0098,0.01,0.0133,0.013,0.0129,0.0117,0.0118,0.0109,0.0109,0.0121,0.0121,0.0125,0.0097,0.0095,0.0093,0.0079,0.0079,0.0078,0.0077,0.0077,0.0066,0.0067,0,0,0,0,0,0,0.0104,0.01,0.0133,0.0133,0.0115,0.0118,0.012,0.0128,0.011,0.0108,0.0125,0.0124,0.0097,0.0094,0.0092,0.0108,0.0078,0.0077,0.0076,0.0066,0.0066,0.0067,0,0,0,0,0,0,0.0103,0.0107,0.0132,0.0118,0.012,0.012,0.0129,0.0128,0.013,0.0114,0.011,0.0128,0.0097,0.0093,0.0088,0.0106,0.0076,0.0075,0.0065,0.0066,0.0067,0.013,0,0,0,0,0,0,0.0102,0.0107,0.0112,0.0118,0.0122,0.0147,0.013,0.0129,0.0134,0.0133,0.0115,0.0111,0.0096,0.0089,0.0087,0.0104,0.0074,0.0065,0.0066,0.0066,0.0127,0.0133,0.0137,0,0,0,0,0,0.01,0.0115,0.0113,0.0116,0.013,0.0148,0.0149,0.0145,0.0135,0.0143,0.0126,0.0112,0.0092,0.0089,0.0085,0.0103,0.0065,0.0065,0.0066,0.0125,0.0132,0.0137,0,0,0,0,0,0,0.0099,0.0116,0.0113,0.0132,0.0142,0.0147,0.0154,0.015,0.0144,0.0139,0.0117,0.0113,0.0115,0.0097,0.0095,0.01,0.0076,0.0076,0.0122,0.0128,0.0132,0.0155,0.0073,0,0,0,0,0,0.0102,0.0116,0.0129,0.0144,0.0151,0.0152,0.0157,0.0156,0.0154,0.0151,0.0138,0.0122,0.0115,0.0112,0.01,0.0105,0.0089,0.0113,0.0118,0.0122,0.0137,0.013,0.0136,0.007,0.007,0.007,0,0,0.0105,0.0116,0.0123,0.0144,0.015,0.0176,0.0154,0.0169,0.0186,0.0148,0.0159,0.0139,0.0119,0.0125,0.0124,0.0114,0.0129,0.0123,0.0127,0.014,0.0132,0.0138,0.0144,0.007,0.007,0.007,0,0,0.013,0.013,0.0156,0.0169,0.0187,0.0191,0.0199,0.0206,0.0203,0.021,0.0188,0.0181,0.0166,0.0162,0.0156,0.018,0.0154,0.0172,0.022,0.0213,0.0219,0.0224,0.0201,0.0204,0.0177,0.0178,0.0178,0,0.0134,0.0171,0.0166,0.0198,0.0217,0.0203,0.024,0.0238,0.024,0.0253,0.0221,0.0216,0.0188,0.0213,0.0213,0.0194,0.0179,0.0201,0.0222,0.0226,0.023,0.0205,0.0207,0.0181,0.018,0.018,0.018,0,0.0188,0.0213,0.023,0.0268,0.0283,0.0312,0.0316,0.0323,0.0312,0.032,0.0331,0.0289,0.0291,0.0276,0.0248,0.027,0.0246,0.0228,0.0211,0.0241,0.0212,0.0213,0.0185,0.0184,0.0183,0.0182,0,0,0.0214,0.0261,0.0267,0.03,0.0325,0.035,0.0373,0.0409,0.0451,0.0419,0.0463,0.0423,0.0403,0.0394,0.0357,0.0343,0.0339,0.0299,0.0297,0.0284,0.0315,0.0298,0.0296,0.0326,0.0327,0.0327,0.0279,0,0.0263,0.0336,0.0343,0.0412,0.0454,0.045,0.0484,0.0508,0.0519,0.0554,0.0508,0.0528,0.0448,0.045,0.0422,0.0372,0.0346,0.0353,0.0281,0.0279,0.0267,0.0299,0.032,0.028,0.028,0.028,0.028,0,0.0323,0.0366,0.044,0.0504,0.0523,0.0555,0.0623,0.0657,0.0693,0.07,0.0702,0.0667,0.064,0.0561,0.0483,0.0491,0.0406,0.0351,0.0348,0.0315,0.0265,0.0251,0.0282,0.0182,0.0281,0.0281,0.0281,0,0.0368,0.0438,0.0501,0.0522,0.0586,0.0616,0.0654,0.0707,0.0766,0.08,0.0836,0.0796,0.0782,0.0679,0.0539,0.0515,0.0451,0.0404,0.0305,0.0301,0.0299,0.0295,0.0235,0.0344,0.0344,0.0344,0.0344,0,0.0431,0.0483,0.0527,0.0565,0.0654,0.0675,0.0782,0.0814,0.0887,0.0982,0.0915,0.0958,0.0811,0.0744,0.0596,0.0463,0.0489,0.0326,0.0299,0.0319,0.0317,0.0212,0.0135,0.0342,0.0342,0.0343,0.0343,0,0.0481,0.0507,0.0588,0.0654,0.068,0.0749,0.0863,0.095,0.0995,0.1109,0.1117,0.1094,0.101,0.0847,0.0698,0.0554,0.0355,0.0355,0.038,0.0356,0.0166,0.0092,-0.0003,-0.0052,0.0245,0.0244,0.0244,0,0.0518,0.0562,0.065,0.0707,0.074,0.0841,0.0922,0.1,0.1099,0.1196,0.1253,0.1205,0.1191,0.0961,0.0716,0.0477,0.0346,0.0326,0.028,0.0174,0.007,0.0025,-0.0012,0.0289,0.0289,0.0289,0.0289,0,0.0589,0.0613,0.0678,0.0787,0.0872,0.0986,0.11,0.1191,0.1295,0.1383,0.1474,0.1468,0.1256,0.1045,0.0722,0.0545,0.0265,0.0317,0.0212,0.0111,0.0055,-0.001,0.0285,0.0289,0.0289,0.0289,0.0289,0.0289,0.0638,0.0694,0.077,0.0876,0.098,0.1109,0.1209,0.134,0.1493,0.1634,0.1626,0.1648,0.1343,0.0915,0.0669,0.0261,0.0243,0.0136,0.0055,0.0021,-0.0023,0.0264,0.0236,0.0235,0.0235,0.0235,0.0235,0,0.0694,0.0754,0.0856,0.0978,0.1092,0.1135,0.1315,0.1425,0.1598,0.1731,0.1808,0.1671,0.1299,0.0896,0.034,0.0061,-0.0038,-0.0087,-0.0142,-0.0169,0.0099,0.0105,0.0044,0.0044,0.0044,0.0044,0.0044,0.0044,0.0728,0.0819,0.0863,0.1039,0.1129,0.1281,0.138,0.155,0.168,0.1837,0.1861,0.1845,0.153,0.0592,-0.0022,-0.0165,-0.0349,-0.0391,-0.0489,-0.0307,-0.0292,-0.0277,-0.0286,-0.0429,-0.043,-0.0694,-0.0697,-0.0699]}],[{"header":{"parameterUnit":"m.s-1","parameterCategory":2,"la1":30.2991,"la2":30.254,"lo1":-89.0895,"lo2":-89.0444,"dy":0.0017,"dx":0.0017,"nx":28,"ny":28,"refTime":"2025-12-20T03:00:00:Z","depth":"2","parameterNumber":2,"parameterNumberName":"U-component_of_CURRENTS"},"data":[0,0,0,0,0,0,0,0,0,0,0,0,0,0,0,0,0,0,0,0,0,0,0,0,0,0,0,0,0,0,0,0,0,0,0,0,0,0,0,0,0,0,0,0,0,0,0,0,0,0,0,0,0,0,0,0,0,0,0.2384,0.2384,0,0.2397,0.2397,0.2397,0.2395,0.2395,0.2394,0.2394,0.2393,0.2393,0.2393,0,0,0,0,0,0,0,0,0,0,0,0,0,0.2351,0.2351,0.2384,0.2384,0.2384,0.2397,0.2397,0.2397,0.2395,0.2395,0.2394,0.2394,0.2393,0.2393,0.2393,0,0,0,0,0,0,0,0,0,0,0,0,0,0.2363,0.2351,0.2384,0.2386,0.2386,0.2397,0.2397,0.2397,0.2395,0.2395,0.2394,0.2394,0.2393,0.2393,0.2393,0.2395,0,0,0.2393,0.2393,0,0,0,0,0,0,0,0,0.2362,0.2364,0.2385,0.2386,0.2386,0.2395,0.2385,0.2396,0.2395,0.239,0.2394,0.2394,0.2393,0.2393,0.2394,0.2395,0.2395,0.2393,0.2393,0.2393,0.2393,0,0,0,0,0,0,0,0.2361,0.2363,0.2387,0.2386,0.2386,0.2384,0.2386,0.2387,0.239,0.239,0.239,0.2395,0.2393,0.2394,0.2394,0.2395,0.2393,0.2393,0.2393,0.2393,0.2449,0.245,0,0,0,0,0,0,0.2364,0.2363,0.2387,0.2388,0.2376,0.2385,0.2387,0.2391,0.2391,0.2391,0.2395,0.2395,0.2394,0.2394,0.2394,0.2438,0.2393,0.2393,0.2393,0.2447,0.2449,0.2451,0,0,0,0,0,0,0.2363,0.2366,0.2386,0.2377,0.2379,0.2386,0.2391,0.2392,0.2405,0.2395,0.2394,0.2409,0.2394,0.2394,0.241,0.2436,0.2393,0.2393,0.2445,0.2448,0.245,0.2499,0,0,0,0,0,0,0.2362,0.2365,0.2375,0.2377,0.238,0.2401,0.2391,0.2392,0.2407,0.2408,0.2407,0.2406,0.2394,0.241,0.241,0.2435,0.2393,0.2444,0.2446,0.2449,0.2496,0.2503,0.2509,0,0,0,0,0,0.2361,0.2373,0.2376,0.2379,0.2392,0.2402,0.2403,0.2406,0.2408,0.2417,0.2421,0.2406,0.2428,0.2411,0.2411,0.2437,0.2442,0.2446,0.2449,0.2493,0.2501,0.2509,0,0,0,0,0,0,0.2368,0.2374,0.2377,0.2392,0.2401,0.2402,0.2415,0.2417,0.2426,0.2431,0.242,0.2419,0.2446,0.2436,0.2419,0.2463,0.2435,0.2438,0.2468,0.2476,0.2483,0.2489,0.2393,0,0,0,0,0,0.2374,0.2382,0.239,0.2403,0.2411,0.2417,0.2424,0.2427,0.2434,0.2438,0.2437,0.2444,0.2458,0.2463,0.2469,0.2488,0.2492,0.2507,0.2514,0.2519,0.2525,0.2568,0.2579,0.2461,0.2461,0.2461,0,0,0.2375,0.2386,0.2387,0.2405,0.2414,0.2427,0.2421,0.2439,0.2452,0.2437,0.2458,0.2466,0.247,0.2495,0.2506,0.2489,0.2554,0.2524,0.2528,0.2531,0.2573,0.2584,0.2595,0.2464,0.2463,0.2463,0,0,0.2385,0.2399,0.2408,0.242,0.2441,0.2446,0.2456,0.2466,0.2476,0.2498,0.2497,0.2522,0.2533,0.2543,0.255,0.2598,0.2589,0.2603,0.2637,0.2679,0.2689,0.2698,0.2709,0.2718,0.2604,0.2604,0.2604,0,0.2387,0.2403,0.2413,0.2432,0.2443,0.2457,0.2471,0.2487,0.25,0.2522,0.2513,0.2562,0.2559,0.2602,0.2617,0.2613,0.2626,0.2605,0.2688,0.2697,0.2705,0.2714,0.2724,0.2606,0.2606,0.2606,0.2606,0,0.2403,0.2419,0.2431,0.2455,0.2469,0.2487,0.2507,0.253,0.2548,0.2569,0.262,0.2623,0.2655,0.2661,0.2651,0.2712,0.2698,0.2693,0.2666,0.272,0.2725,0.2735,0.261,0.2609,0.2609,0.2608,0,0,0.2381,0.243,0.2431,0.2446,0.2483,0.2492,0.2532,0.2572,0.261,0.2638,0.2686,0.2717,0.2734,0.2744,0.2742,0.2771,0.2831,0.2758,0.2759,0.2765,0.291,0.2845,0.2848,0.2846,0.2849,0.285,0.2887,0,0.2387,0.2421,0.2445,0.2471,0.2486,0.252,0.2556,0.2599,0.2641,0.2694,0.273,0.2775,0.2762,0.2782,0.2816,0.2833,0.286,0.2821,0.286,0.2861,0.2794,0.2859,0.2623,0.2632,0.2896,0.2898,0.2899,0,0.2384,0.2408,0.2437,0.2482,0.2493,0.2517,0.258,0.2618,0.2706,0.2746,0.2812,0.2837,0.2895,0.2869,0.2938,0.2917,0.292,0.2925,0.2926,0.2855,0.2814,0.2624,0.2639,0.2914,0.2913,0.2912,0.2911,0,0.2347,0.2395,0.2419,0.2433,0.2492,0.2518,0.2557,0.2639,0.2685,0.2786,0.283,0.2908,0.2945,0.2981,0.2995,0.2977,0.3058,0.3033,0.2974,0.2968,0.2769,0.2742,0.3081,0.3081,0.3081,0.3081,0.3081,0,0.2332,0.2343,0.2407,0.2415,0.2454,0.2503,0.2562,0.2623,0.2717,0.2775,0.2855,0.2902,0.2979,0.3026,0.3029,0.3036,0.3092,0.2994,0.2986,0.2778,0.2753,0.2997,0.2986,0.3083,0.3082,0.3082,0.3082,0,0.2279,0.2322,0.2346,0.2412,0.2435,0.2463,0.2553,0.2595,0.2699,0.2773,0.2805,0.2923,0.2989,0.304,0.31,0.307,0.3083,0.3065,0.2803,0.2764,0.2951,0.2943,0.3006,0.3005,0.3003,0.3002,0.3001,0,0.2255,0.2268,0.2331,0.2345,0.2374,0.2429,0.2463,0.2575,0.262,0.2766,0.2787,0.2897,0.2944,0.302,0.2997,0.3,0.3062,0.2771,0.2696,0.2964,0.295,0.2944,0.2938,0.2442,0.2437,0.2432,0.2429,0,0.2207,0.2235,0.2253,0.2288,0.2318,0.2352,0.2412,0.2443,0.2565,0.2627,0.2706,0.2763,0.2852,0.2764,0.2789,0.2753,0.2755,0.268,0.3043,0.2505,0.2437,0.2422,0.2433,0.2388,0.2392,0.2395,0.2397,0.2399,0.2165,0.2165,0.2195,0.2215,0.2245,0.2248,0.224,0.2303,0.2349,0.2407,0.254,0.2545,0.259,0.2511,0.2433,0.2367,0.2556,0.2428,0.2439,0.2456,0.2392,0.2326,0.2243,0.2246,0.2248,0.2251,0.2253,0,0.2105,0.2106,0.2119,0.2121,0.21,0.2159,0.2176,0.214,0.2132,0.222,0.2272,0.2104,0.2062,0.2102,0.1941,0.194,0.1898,0.1856,0.1777,0.182,0.1857,0.1759,0.1443,0.1441,0.1438,0.1436,0,0,0.2067,0.2039,0.2035,0.197,0.1975,0.1909,0.1892,0.1859,0.188,0.1844,0.1833,0.1997,0.206,0.1732,0.1688,0.1537,0.1665,0.1474,0.2129,0.2081,0.2115,0.2199,0.2098,0,0,0,0,0]},{"header":{"parameterUnit":"m.s-1","parameterCategory":2,"la1":30.2991,"la2":30.254,"lo1":-89.0895,"lo2":-89.0444,"dy":0.0017,"dx":0.0017,"nx":28,"ny":28,"refTime":"2025-12-20T03:00:00:Z","depth":"2","parameterNumber":3,"parameterNumberName":"V-component_of_CURRENTS"},"data":[0,0,0,0,0,0,0,0,0,0,0,0,0,0,0,0,0,0,0,0,0,0,0,0,0,0,0,0,0,0,0,0,0,0,0,0,0,0,0,0,0,0,0,0,0,0,0,0,0,0,0,0,0,0,0,0,0,0,0.0175,0.0175,0,0.0163,0.0163,0.0162,0.0145,0.0145,0.0144,0.0144,0.0112,0.0111,0.011,0,0,0,0,0,0,0,0,0,0,0,0,0,0.0145,0.0146,0.0175,0.0175,0.0175,0.0163,0.0163,0.0162,0.0145,0.0144,0.0144,0.0144,0.0112,0.0111,0.011,0,0,0,0,0,0,0,0,0,0,0,0,0,0.0148,0.0146,0.0175,0.0165,0.0164,0.0163,0.0163,0.0162,0.0145,0.0144,0.0144,0.0144,0.0112,0.0111,0.011,0.0111,0,0,0.0107,0.0107,0,0,0,0,0,0,0,0,0.0147,0.0149,0.0167,0.0166,0.0165,0.0156,0.014,0.0144,0.0145,0.0151,0.0144,0.0144,0.0125,0.0123,0.0121,0.0109,0.0108,0.0107,0.0107,0.0106,0.0106,0,0,0,0,0,0,0,0.0147,0.0149,0.0169,0.0167,0.0166,0.0149,0.0149,0.0141,0.0139,0.0151,0.015,0.015,0.0125,0.0122,0.012,0.0107,0.0107,0.0106,0.0106,0.0105,0.0093,0.0094,0,0,0,0,0,0,0.0153,0.0149,0.0169,0.0169,0.0156,0.015,0.015,0.0158,0.014,0.0137,0.015,0.0149,0.0124,0.0121,0.0119,0.0129,0.0106,0.0105,0.0105,0.0093,0.0093,0.0094,0,0,0,0,0,0,0.0153,0.0156,0.017,0.0159,0.0159,0.0151,0.016,0.0158,0.0157,0.014,0.0136,0.0151,0.0123,0.012,0.0115,0.0127,0.0105,0.0104,0.0093,0.0093,0.0094,0.0142,0,0,0,0,0,0,0.0152,0.0156,0.016,0.0159,0.016,0.0176,0.0161,0.0158,0.0158,0.0156,0.014,0.0136,0.0123,0.0116,0.0114,0.0125,0.0103,0.0092,0.0093,0.0093,0.014,0.0144,0.0147,0,0,0,0,0,0.0151,0.0165,0.0161,0.0163,0.0169,0.0176,0.0175,0.0167,0.0158,0.0163,0.015,0.0137,0.0118,0.0116,0.0113,0.0124,0.0092,0.0093,0.0093,0.0138,0.0143,0.0147,0,0,0,0,0,0,0.0155,0.0165,0.016,0.0176,0.0177,0.0174,0.0177,0.0171,0.0164,0.016,0.0141,0.0137,0.0136,0.0122,0.0121,0.0121,0.0102,0.0102,0.0137,0.0142,0.0145,0.0159,0.0102,0,0,0,0,0,0.0158,0.0171,0.0174,0.0185,0.0188,0.0182,0.0182,0.0178,0.0173,0.017,0.0158,0.0144,0.0136,0.0133,0.0121,0.0124,0.0104,0.0128,0.0132,0.0135,0.0144,0.0121,0.0123,0.0096,0.0096,0.0096,0,0,0.0163,0.0169,0.0175,0.0186,0.0186,0.0202,0.0182,0.0188,0.0198,0.0167,0.0174,0.0155,0.0138,0.014,0.0139,0.0132,0.0131,0.0136,0.0139,0.0146,0.0122,0.0124,0.0127,0.0096,0.0096,0.0096,0,0,0.0182,0.0184,0.0202,0.0209,0.0213,0.0213,0.0217,0.0216,0.0212,0.0215,0.0195,0.0185,0.0174,0.0166,0.016,0.0177,0.0148,0.0171,0.0206,0.0184,0.0186,0.0187,0.016,0.0159,0.0177,0.0177,0.0177,0,0.0186,0.0212,0.0207,0.0228,0.0239,0.0223,0.0247,0.0243,0.0239,0.0244,0.0223,0.0208,0.0187,0.0197,0.02,0.0186,0.0166,0.0193,0.0189,0.019,0.0191,0.0163,0.0161,0.0179,0.0179,0.0179,0.0178,0,0.0224,0.0242,0.0254,0.0278,0.0287,0.0305,0.0303,0.0306,0.0295,0.0294,0.0292,0.026,0.0254,0.0243,0.0226,0.0229,0.021,0.0194,0.018,0.0197,0.0166,0.0163,0.0183,0.0182,0.0181,0.018,0,0,0.0245,0.0276,0.0281,0.0302,0.0317,0.0333,0.0347,0.0365,0.0388,0.036,0.0379,0.035,0.0331,0.0322,0.0294,0.0273,0.0254,0.0241,0.0239,0.0219,0.0201,0.0185,0.018,0.0237,0.0237,0.0237,0.0175,0,0.0279,0.0329,0.0333,0.0381,0.041,0.0403,0.0426,0.0435,0.0435,0.0447,0.0406,0.0411,0.0362,0.036,0.0329,0.0279,0.025,0.0272,0.0184,0.0181,0.0169,0.0177,0.0194,0.014,0.0172,0.0171,0.0171,0,0.0318,0.035,0.0402,0.0445,0.0458,0.048,0.0519,0.054,0.0549,0.0546,0.0534,0.0501,0.047,0.0419,0.0335,0.0352,0.0281,0.0231,0.0227,0.0196,0.0161,0.0128,0.0133,0.0166,0.0166,0.0167,0.0167,0,0.0349,0.0398,0.0443,0.0459,0.0503,0.0522,0.0548,0.0573,0.061,0.0613,0.0628,0.058,0.0561,0.0468,0.0357,0.0347,0.0256,0.0228,0.0143,0.0141,0.013,0.0127,0.0161,0.0161,0.0161,0.0161,0.0161,0,0.0391,0.0427,0.0462,0.049,0.0553,0.0566,0.0635,0.0651,0.0689,0.0743,0.0685,0.0703,0.0573,0.0502,0.0385,0.0261,0.0274,0.0153,0.0127,0.0146,0.0146,0.015,0.0149,0.0159,0.0159,0.016,0.016,0,0.042,0.0441,0.0499,0.055,0.0571,0.0619,0.0698,0.0753,0.0774,0.0835,0.0836,0.0801,0.0714,0.0571,0.0427,0.0312,0.0185,0.0133,0.0162,0.0141,0.0075,0.0078,0.0036,0.0035,0.0034,0.0033,0.0033,0,0.044,0.0473,0.0544,0.0587,0.0612,0.0685,0.0744,0.0794,0.0859,0.0899,0.0933,0.087,0.0843,0.0626,0.042,0.0215,0.0184,0.0083,0.0064,0.0085,0.0064,0.0068,0.0072,0.0063,0.0062,0.0062,0.0062,0,0.0481,0.0502,0.0552,0.0641,0.0705,0.0791,0.0874,0.0936,0.0996,0.1043,0.1092,0.1071,0.0874,0.0687,0.0405,0.0261,0.0117,0.0071,0.009,0.0096,0.0107,0.0087,0.0091,0.006,0.006,0.006,0.006,0.006,0.0509,0.0549,0.0612,0.0697,0.0778,0.0879,0.0954,0.1046,0.1147,0.1219,0.1204,0.1176,0.096,0.0613,0.0368,0.0103,0.0117,0.0013,0.0015,0.0018,0.0036,0.0045,-0.001,-0.001,-0.0011,-0.0011,-0.0011,0,0.0544,0.059,0.0667,0.0765,0.0855,0.0897,0.1031,0.1105,0.1221,0.1288,0.1328,0.1116,0.0907,0.0646,0.0262,0.0035,0.0016,-0.0047,-0.0017,-0.0013,-0.001,0.0008,-0.0047,-0.0047,-0.0048,-0.0049,0,0,0.0563,0.0632,0.0669,0.0806,0.0882,0.1002,0.108,0.1189,0.1268,0.1333,0.1326,0.1305,0.099,0.0706,0.04,0.0176,0.013,0.0126,0.0179,0.0256,0.0262,0.0049,0.0085,0,0,0,0,0]}],[{"header":{"parameterUnit":"m.s-1","parameterCategory":2,"la1":30.2991,"la2":30.254,"lo1":-89.0895,"lo2":-89.0444,"dy":0.0017,"dx":0.0017,"nx":28,"ny":28,"refTime":"2025-12-20T03:00:00:Z","depth":"4","parameterNumber":2,"parameterNumberName":"U-component_of_CURRENTS"},"data":[0,0,0,0,0,0,0,0,0,0,0,0,0,0,0,0,0,0,0,0,0,0,0,0,0,0,0,0,0,0,0,0,0,0,0,0,0,0,0,0,0,0,0,0,0,0,0,0,0,0,0,0,0,0,0,0,0,0,0.1444,0.1445,0,0.1502,0.1503,0.1503,0.1554,0.1554,0.1555,0.1556,0.162,0.1621,0.1623,0,0,0,0,0,0,0,0,0,0,0,0,0,0.1373,0.1374,0.1444,0.1445,0.1446,0.1502,0.1503,0.1504,0.1553,0.1554,0.1555,0.1556,0.162,0.1621,0.1623,0,0,0,0,0,0,0,0,0,0,0,0,0,0.1413,0.1375,0.1444,0.1479,0.1483,0.1502,0.1503,0.1504,0.1553,0.1554,0.1555,0.1556,0.162,0.1621,0.1623,0.1611,0,0,0.1628,0.1628,0,0,0,0,0,0,0,0,0.1411,0.1416,0.1473,0.1476,0.1481,0.1523,0.1502,0.154,0.1553,0.1524,0.1556,0.1557,0.1589,0.1593,0.1599,0.1614,0.1616,0.1628,0.1629,0.1629,0.163,0,0,0,0,0,0,0,0.1408,0.1413,0.1465,0.1473,0.1478,0.1491,0.1498,0.1509,0.1548,0.1527,0.1531,0.154,0.1591,0.1597,0.1601,0.1617,0.1628,0.1629,0.163,0.1631,0.1734,0.1736,0,0,0,0,0,0,0.1404,0.1411,0.1463,0.1467,0.145,0.1492,0.1499,0.1507,0.1548,0.1556,0.1539,0.1543,0.1594,0.1599,0.1603,0.1684,0.1629,0.1631,0.1632,0.1732,0.1735,0.1737,0,0,0,0,0,0,0.1402,0.1408,0.1461,0.1442,0.145,0.1492,0.15,0.1508,0.1548,0.1558,0.1566,0.1576,0.1595,0.1601,0.1647,0.1683,0.1632,0.1633,0.173,0.1733,0.1736,0.1785,0,0,0,0,0,0,0.14,0.1407,0.1426,0.1441,0.1451,0.1493,0.15,0.1508,0.1551,0.1556,0.1592,0.1597,0.1597,0.1645,0.1649,0.1684,0.1634,0.1728,0.1731,0.1735,0.1781,0.1789,0.1795,0,0,0,0,0,0.1397,0.1412,0.1426,0.1434,0.1471,0.1494,0.15,0.1532,0.1552,0.1572,0.1603,0.1598,0.1669,0.1647,0.1651,0.1688,0.1726,0.173,0.1734,0.1777,0.1787,0.1795,0,0,0,0,0,0,0.1392,0.1419,0.1435,0.1459,0.1486,0.1504,0.153,0.155,0.1589,0.1607,0.1615,0.1622,0.1677,0.1677,0.1653,0.173,0.1699,0.1704,0.1731,0.174,0.1747,0.1746,0.1635,0,0,0,0,0,0.1398,0.1421,0.1445,0.1469,0.1485,0.1514,0.1535,0.1557,0.1586,0.1606,0.1631,0.1662,0.169,0.1712,0.1732,0.177,0.1772,0.1799,0.1807,0.1813,0.1817,0.1862,0.1874,0.175,0.175,0.175,0,0,0.1403,0.1423,0.1437,0.1471,0.1496,0.1522,0.153,0.1571,0.1601,0.1605,0.1665,0.1689,0.1707,0.1753,0.1778,0.1762,0.1848,0.1818,0.1823,0.1823,0.1868,0.1879,0.189,0.1753,0.1752,0.1752,0,0,0.1415,0.1445,0.1466,0.149,0.1534,0.155,0.1569,0.1607,0.1639,0.1689,0.1705,0.1753,0.1795,0.1816,0.1829,0.189,0.1886,0.1905,0.1942,0.1987,0.1997,0.2006,0.2015,0.2025,0.1909,0.1909,0.191,0,0.1425,0.1449,0.1476,0.1502,0.1527,0.1566,0.1593,0.1626,0.1677,0.1711,0.172,0.1809,0.1823,0.188,0.1903,0.1907,0.1922,0.1904,0.1996,0.2005,0.2013,0.202,0.203,0.1912,0.1912,0.1912,0.1911,0,0.1439,0.1474,0.1491,0.1535,0.1565,0.1598,0.1639,0.1685,0.1731,0.1766,0.1848,0.1875,0.193,0.1945,0.1942,0.2015,0.2002,0.1998,0.1969,0.2028,0.2032,0.2041,0.1916,0.1915,0.1914,0.1914,0,0,0.1421,0.1488,0.1498,0.1527,0.1587,0.161,0.167,0.173,0.1784,0.1847,0.1914,0.1971,0.2006,0.2024,0.2037,0.2072,0.2137,0.2066,0.2067,0.2067,0.2221,0.2071,0.2066,0.2158,0.2161,0.2162,0.2196,0,0.1429,0.1476,0.151,0.1565,0.1592,0.1649,0.1699,0.1766,0.183,0.1906,0.1961,0.2032,0.203,0.2071,0.211,0.2136,0.2167,0.2127,0.217,0.2171,0.2025,0.2074,0.2169,0.2202,0.2204,0.2206,0.2207,0,0.1426,0.146,0.1511,0.1585,0.1604,0.1648,0.1743,0.1797,0.1906,0.1962,0.2048,0.2094,0.217,0.2156,0.2236,0.2217,0.2227,0.2234,0.2236,0.2084,0.2038,0.2135,0.2224,0.2222,0.2221,0.222,0.2219,0,0.1386,0.146,0.1502,0.1527,0.1615,0.1662,0.172,0.1824,0.1884,0.2011,0.2071,0.2165,0.2225,0.2267,0.2293,0.2281,0.236,0.2342,0.2211,0.2199,0.2302,0.2292,0.2394,0.2394,0.2394,0.2394,0.2394,0,0.1362,0.1401,0.1495,0.1517,0.1583,0.1654,0.1741,0.1817,0.1931,0.2001,0.2106,0.2162,0.2262,0.2315,0.2322,0.229,0.239,0.2219,0.2204,0.232,0.2312,0.2308,0.2297,0.2395,0.2395,0.2395,0.2394,0,0.1308,0.137,0.1426,0.1528,0.1566,0.1618,0.1745,0.18,0.1924,0.2017,0.2062,0.219,0.2252,0.2313,0.2377,0.231,0.2303,0.2265,0.2377,0.2367,0.2101,0.2094,0.2114,0.2109,0.2105,0.2102,0.2099,0,0.128,0.1305,0.1422,0.1459,0.1512,0.1601,0.1657,0.1788,0.1842,0.2007,0.2033,0.2149,0.2212,0.2177,0.2255,0.2253,0.2228,0.2199,0.215,0.2092,0.2077,0.2075,0.2073,0.2092,0.2091,0.209,0.2089,0,0.1224,0.1283,0.1328,0.1405,0.1471,0.1531,0.1621,0.1647,0.1787,0.1915,0.1955,0.1985,0.2046,0.2083,0.2098,0.2095,0.2204,0.2155,0.2163,0.2117,0.2066,0.2054,0.2057,0.2074,0.2076,0.2078,0.2079,0,0.1189,0.1206,0.1277,0.1333,0.1407,0.143,0.1491,0.1543,0.1611,0.1783,0.1791,0.1908,0.2025,0.2001,0.2018,0.2002,0.1966,0.1888,0.191,0.1926,0.1849,0.1755,0.1658,0,0,0,0,0,0.1143,0.1152,0.1196,0.1242,0.1308,0.1352,0.1449,0.1509,0.1639,0.1619,0.17,0.1744,0.1771,0.1835,0.1781,0.1933,0.1975,0.1859,0.1896,0.1994,0.2011,0.1937,0,0,0,0,0,0,0.1111,0.1151,0.1161,0.1152,0.1167,0.1222,0.1278,0.1366,0.1362,0.1502,0.1529,0.1633,0.1691,0.1786,0.1748,0.1765,0.1748,0.1936,0.1931,0.1985,0.2,0.2014,0.1943,0,0,0,0,0]},{"header":{"parameterUnit":"m.s-1","parameterCategory":2,"la1":30.2991,"la2":30.254,"lo1":-89.0895,"lo2":-89.0444,"dy":0.0017,"dx":0.0017,"nx":28,"ny":28,"refTime":"2025-12-20T03:00:00:Z","depth":"4","parameterNumber":3,"parameterNumberName":"V-component_of_CURRENTS"},"data":[0,0,0,0,0,0,0,0,0,0,0,0,0,0,0,0,0,0,0,0,0,0,0,0,0,0,0,0,0,0,0,0,0,0,0,0,0,0,0,0,0,0,0,0,0,0,0,0,0,0,0,0,0,0,0,0,0,0,0.0176,0.0176,0,0.0168,0.0168,0.0168,0.016,0.0159,0.0159,0.0159,0.0141,0.014,0.014,0,0,0,0,0,0,0,0,0,0,0,0,0,0.0153,0.0154,0.0176,0.0176,0.0175,0.0168,0.0168,0.0168,0.016,0.0159,0.0159,0.0159,0.0141,0.014,0.014,0,0,0,0,0,0,0,0,0,0,0,0,0,0.0156,0.0154,0.0176,0.0171,0.017,0.0168,0.0168,0.0168,0.016,0.0159,0.0159,0.0159,0.0141,0.014,0.014,0.0139,0,0,0.0138,0.0138,0,0,0,0,0,0,0,0,0.0156,0.0157,0.0171,0.0171,0.017,0.0165,0.0153,0.0158,0.016,0.0163,0.0159,0.0159,0.0148,0.0147,0.0145,0.0138,0.0137,0.0138,0.0137,0.0137,0.0137,0,0,0,0,0,0,0,0.0156,0.0157,0.0172,0.0171,0.0171,0.0159,0.0159,0.0154,0.0156,0.0163,0.0162,0.0162,0.0148,0.0146,0.0145,0.0137,0.0138,0.0137,0.0137,0.0137,0.0131,0.0131,0,0,0,0,0,0,0.0159,0.0157,0.0173,0.0172,0.0163,0.016,0.016,0.0167,0.0156,0.0155,0.0162,0.0162,0.0147,0.0146,0.0144,0.0155,0.0137,0.0137,0.0136,0.0131,0.0131,0.0131,0,0,0,0,0,0,0.0159,0.0161,0.0173,0.0164,0.0165,0.016,0.0168,0.0167,0.0168,0.0156,0.0154,0.0166,0.0147,0.0145,0.0145,0.0154,0.0136,0.0136,0.013,0.0131,0.0131,0.0168,0,0,0,0,0,0,0.0158,0.0161,0.0166,0.0165,0.0165,0.0177,0.0168,0.0167,0.0168,0.0168,0.0158,0.0156,0.0147,0.0146,0.0144,0.0152,0.0135,0.013,0.0131,0.0131,0.0167,0.017,0.0173,0,0,0,0,0,0.0158,0.0169,0.0167,0.0169,0.0174,0.0178,0.0177,0.0173,0.0169,0.0173,0.0166,0.0157,0.0147,0.0146,0.0144,0.0152,0.013,0.013,0.0131,0.0166,0.0169,0.0173,0,0,0,0,0,0,0.0162,0.0169,0.0167,0.0179,0.018,0.0176,0.018,0.0176,0.0174,0.0173,0.0161,0.0159,0.016,0.0151,0.0149,0.015,0.0136,0.0136,0.0163,0.0167,0.0169,0.0177,0.0135,0,0,0,0,0,0.0166,0.0176,0.0177,0.0187,0.0189,0.0184,0.0185,0.0183,0.0181,0.018,0.0173,0.0165,0.016,0.016,0.0152,0.0155,0.0133,0.0158,0.0161,0.0163,0.0167,0.0139,0.014,0.0133,0.0133,0.0133,0,0,0.017,0.0174,0.018,0.0188,0.0188,0.0199,0.0185,0.019,0.0198,0.0178,0.0187,0.0175,0.0163,0.0166,0.0165,0.016,0.0153,0.0164,0.0167,0.0169,0.014,0.014,0.0141,0.0133,0.0133,0.0133,0,0,0.0184,0.0188,0.0201,0.0206,0.0209,0.0209,0.0212,0.0212,0.0211,0.0217,0.0203,0.0197,0.0192,0.0185,0.018,0.0194,0.0167,0.0192,0.0216,0.0189,0.0189,0.0189,0.016,0.0157,0.0196,0.0196,0.0196,0,0.0188,0.0207,0.0204,0.0218,0.0227,0.0217,0.0234,0.0233,0.0232,0.0235,0.0224,0.0214,0.0201,0.0205,0.0209,0.0201,0.018,0.0206,0.0192,0.0192,0.0191,0.0162,0.0158,0.0198,0.0198,0.0197,0.0197,0,0.0212,0.0228,0.0237,0.0254,0.0261,0.0274,0.0274,0.0278,0.0274,0.0273,0.0273,0.0251,0.0246,0.0239,0.023,0.0225,0.0209,0.0197,0.0185,0.0194,0.0162,0.0158,0.02,0.02,0.0199,0.0199,0,0,0.0224,0.025,0.0254,0.0271,0.0284,0.0294,0.0307,0.0319,0.0335,0.0319,0.0329,0.0312,0.0298,0.0291,0.0272,0.025,0.0225,0.0227,0.0225,0.0201,0.0162,0.0151,0.0144,0.021,0.021,0.0209,0.0141,0,0.0246,0.0283,0.0289,0.0324,0.0344,0.0344,0.0361,0.0369,0.0369,0.0375,0.0345,0.0348,0.0319,0.0318,0.0289,0.0244,0.0215,0.0244,0.0155,0.0152,0.0143,0.014,0.0208,0.0138,0.0137,0.0136,0.0135,0,0.027,0.0294,0.0332,0.0367,0.0376,0.0396,0.0424,0.0441,0.0444,0.0441,0.043,0.0406,0.0377,0.0345,0.0266,0.0287,0.0229,0.0186,0.0182,0.0156,0.0133,0.0126,0.0127,0.0128,0.0128,0.0129,0.0129,0,0.0284,0.0325,0.0359,0.0372,0.0408,0.0425,0.0447,0.0464,0.049,0.0487,0.0495,0.0451,0.0433,0.0355,0.0266,0.0266,0.0169,0.0155,0.0087,0.0085,0.01,0.01,0.0091,0.0091,0.0091,0.0091,0.0091,0,0.0307,0.0336,0.0371,0.0392,0.0441,0.0455,0.0506,0.0518,0.0543,0.0575,0.0535,0.0537,0.0435,0.0368,0.0277,0.017,0.0174,0.009,0.0067,0.0116,0.012,0.0096,0.0097,0.0089,0.0089,0.009,0.009,0,0.0318,0.034,0.0385,0.043,0.045,0.0487,0.0552,0.0589,0.0605,0.064,0.064,0.0601,0.0518,0.0405,0.0277,0.0193,0.0086,0.0044,0.0106,0.0088,0.0016,0.002,-0.0037,-0.0038,-0.0039,-0.004,-0.004,0,0.0325,0.0349,0.0413,0.0448,0.0473,0.0532,0.0578,0.0618,0.0659,0.0679,0.0694,0.0633,0.0585,0.0402,0.0278,0.0097,0.0069,0.0003,0.0007,0.0019,0.0003,0.0009,0.0014,-0.0041,-0.0042,-0.0042,-0.0042,0,0.0339,0.0363,0.0401,0.0474,0.0529,0.0595,0.066,0.0692,0.0735,0.0746,0.0739,0.0647,0.0553,0.041,0.0268,0.0138,0.0041,-0.0006,-0.0005,-0.0002,0.0013,-0.0001,0.0005,-0.0045,-0.0045,-0.0044,-0.0044,0,0.0349,0.0377,0.043,0.0496,0.0568,0.0637,0.0672,0.0718,0.0758,0.0775,0.077,0.067,0.0617,0.0431,0.0302,0.0172,0.0136,0.0081,0.0076,0.0078,0.0128,0.0165,0.0135,0,0,0,0,0,0.0358,0.0391,0.0449,0.0521,0.0594,0.064,0.0719,0.0749,0.0783,0.0784,0.078,0.0692,0.0512,0.0445,0.0314,0.0274,0.0103,0.0112,0.0034,-0.0061,-0.0057,-0.0019,0,0,0,0,0,0,0.0363,0.0415,0.0444,0.0532,0.0585,0.067,0.0722,0.0749,0.0754,0.0766,0.0683,0.0641,0.0478,0.0587,0.0306,0.0268,0.0195,0.0034,0.0031,-0.0063,-0.006,-0.0057,-0.0016,0,0,0,0,0]}]]